Overview Statistics Trail Chart Weather Telemetry Raw packets
 

This is the latest recevied weather packets stored in our database for station/object W0AKY-13. If no packets are shown the sender has not sent any weather packets the latest 10 day(s).

<< 85 86 87 88 89 90 91 >>
Time Temp. Humidity Pressure Rain* Wind** Luminosity Snow
1787875431 26.11° C 67% 1020 hPa 0 mm - 22 W/m² -
1787875130 26.11° C 67% 1020 hPa 0 mm - 24 W/m² -
1787874826 26.11° C 63% 1019.8 hPa 0 mm - 26 W/m² -
1787874524 26.67° C 64% 1019.8 hPa 0 mm - 27 W/m² -
1787874219 26.67° C 64% 1019.9 hPa 0 mm - 34 W/m² -
1787873914 26.67° C 61% 1020 hPa 0 mm - 32 W/m² -
1787873613 27.22° C 62% 1019.9 hPa 0 mm - 36 W/m² -
1787873308 27.22° C 59% 1019.9 hPa 0 mm - 35 W/m² -
1787873007 27.22° C 61% 1020.1 hPa 0 mm - 37 W/m² -
1787872703 27.22° C 65% 1020.1 hPa 0 mm - 38 W/m² -
1787872398 27.78° C 57% 1020.1 hPa 0 mm - 41 W/m² -
1787872093 27.78° C 59% 1020.2 hPa 0 mm - 59 W/m² -
1787871793 28.33° C 57% 1020.3 hPa 0 mm - 59 W/m² -
1787871488 29.44° C 56% 1020.2 hPa 0 mm - 111 W/m² -
1787871184 29.44° C 57% 1020.2 hPa 0 mm - 157 W/m² -
1787870883 29.44° C 52% 1020.4 hPa 0 mm - 110 W/m² -
1787870578 28.89° C 53% 1020.3 hPa 0 mm - 179 W/m² -
1787870274 28.89° C 57% 1020.4 hPa 0 mm - 190 W/m² -
1787869974 29.44° C 57% 1020.4 hPa 0 mm - 204 W/m² -
1787869668 28.89° C 57% 1020.4 hPa 0 mm - 215 W/m² -
1787869368 28.89° C 56% 1020.6 hPa 0 mm - 223 W/m² -
1787869067 28.89° C 58% 1020.6 hPa 0 mm - 242 W/m² -
1787868765 28.89° C 57% 1020.7 hPa 0 mm - 252 W/m² -
1787868465 29.44° C 53% 1020.7 hPa 0 mm - 272 W/m² -
1787868164 29.44° C 58% 1020.6 hPa 0 mm - 164 W/m² -

* Rain latest hour (hover to see other rain measurements)
** Current wind speed in m/s (hover to see current wind gust speed)